Flag for U.S.A. Weather past 2 weeks in Lakewood, Colorado, U.S.A.

Now
16 °F

Partly sunny.


Feels Like: 4 °F
Forecast: 13 / 30 °F
Wind: 9 mph from North

Location: Centennial Airport

Current Time: Feb 27, 2015 at 5:44:28 PM

Latest Report: Feb 27, 2015 at 4:53 PM


Visibility: 10 mi

Pressure: 30.12 "Hg

Humidity: 71%

Dew point: 8 °F

Location of LakewoodLocation

Historic Weather in Lakewood — Graph

°F

Lakewood temperature yesterday

Maximum temperature yesterday: 16 °F (at 11:53 AM)
Minimum temperature yesterday: 5 °F (at 6:53 AM)
Average temperature yesterday: 12 °F

Past Weeks' High & Low Weather Summary

 TemperatureHumidityPressure
High62 °F (Feb 14, 12:53 PM)100% (Feb 15, 10:00 PM)30.61 "Hg (Feb 15, 10:00 PM)
Low1 °F (Feb 27, 4:53 AM)15% (Feb 14, 12:53 PM)29.69 "Hg (Feb 20, 11:53 AM)
Average28 °F68%30.17 "Hg
* Reported Feb 12 3:53 PM — Feb 27 3:53 PM, Lakewood, Weather by CustomWeather, © 2015

Note: Actual official high and low records may vary slightly from our data, if they occured in-between our weather recording intervals... More about our weather records

Advertising

Lakewood weather history for previous 24 hours

 ConditionsComfort  
Time TempWeatherWind HumidityBarometerVisibility
3:53 PM
Fri, Feb 27
17 °FPassing clouds.No wind62%30.11 "Hg10 mi
2:53 PM20 °FPassing clouds.No wind52%30.10 "Hg10 mi
1:53 PM18 °FPassing clouds.No wind54%30.11 "Hg10 mi
12:53 PM16 °FPassing clouds.6 mph62%30.13 "Hg10 mi
11:53 AM15 °FScattered clouds.6 mph61%30.16 "Hg10 mi
10:53 AM13 °FPassing clouds.3 mph61%30.18 "Hg10 mi
9:53 AM11 °FPartly sunny.6 mph67%30.19 "Hg10 mi
8:53 AM8 °FBroken clouds.9 mph72%30.23 "Hg10 mi
7:53 AM3 °FBroken clouds.6 mph79%30.26 "Hg10 mi
6:53 AM1 °FBroken clouds.7 mph79%30.26 "Hg10 mi
5:53 AM2 °FPartly cloudy.7 mph80%30.26 "Hg10 mi
4:53 AM1 °FPassing clouds.8 mph83%30.26 "Hg10 mi
3:53 AM3 °FPassing clouds.6 mph79%30.26 "Hg10 mi
2:53 AM2 °FPassing clouds.6 mph83%30.27 "Hg10 mi
1:53 AM4 °FPartly cloudy.5 mph84%30.28 "Hg10 mi
12:53 AM5 °FPassing clouds.6 mph80%30.29 "Hg10 mi
11:53 PM
Thu, Feb 26
8 °FLight snow. Ice fog.8 mph76%30.29 "Hg5 mi
11:03 PM10 °FLight snow. Ice fog.7 mph84%30.06 "Hg1 mi
10:53 PM10 °FSnow. Ice fog.7 mph84%30.30 "Hg1 mi
9:53 PM12 °FLight snow. Ice fog.8 mph88%30.32 "Hg1 mi
8:53 PM12 °FLight snow. Ice fog.6 mph92%30.33 "Hg2 mi
7:53 PM13 °FLight snow. Ice fog.9 mph88%30.33 "Hg1 mi
6:53 PM13 °FLight snow. Ice fog.8 mph88%30.34 "Hg1 mi
5:53 PM13 °FLight snow. Ice fog.8 mph88%30.32 "Hg1 mi
Weather by CustomWeather, © 2015

See weather overviewHow to use our weather pages